TimeEST,TemperatureF,Dew PointF,Humidity,Sea Level PressureIn,VisibilityMPH,Wind Direction,Wind SpeedMPH,Gust SpeedMPH,PrecipitationIn,Events,Conditions,WindDirDegrees,DateUTC
12:14 AM,54.7,52.2,91,29.68,3.0,SW,13.8,-,N/A,,Overcast,230,2012-12-10 05:14:00
12:34 AM,54.7,52.0,91,29.67,5.0,SW,13.8,-,N/A,,Overcast,220,2012-12-10 05:34:00
12:54 AM,54.5,51.8,91,29.65,10.0,SW,11.5,-,N/A,,Overcast,220,2012-12-10 05:54:00
1:14 AM,54.0,51.3,91,29.65,10.0,SW,10.4,-,N/A,,Mostly Cloudy,230,2012-12-10 06:14:00
1:34 AM,53.8,50.9,90,29.65,10.0,SW,10.4,-,N/A,,Overcast,230,2012-12-10 06:34:00
1:54 AM,53.6,50.9,91,29.65,10.0,SW,11.5,-,N/A,,Overcast,230,2012-12-10 06:54:00
2:14 AM,53.6,50.9,91,29.66,4.0,SW,10.4,-,N/A,,Overcast,230,2012-12-10 07:14:00
2:34 AM,53.1,50.9,92,29.66,3.0,WSW,10.4,-,N/A,,Overcast,240,2012-12-10 07:34:00
2:54 AM,53.1,51.1,93,29.66,5.0,West,8.1,-,N/A,,Overcast,280,2012-12-10 07:54:00
3:14 AM,50.5,47.7,90,29.65,4.0,NW,12.7,-,N/A,,Overcast,310,2012-12-10 08:14:00
3:54 AM,49.6,47.7,93,29.66,2.0,NNW,4.6,-,N/A,,Overcast,330,2012-12-10 08:54:00
4:14 AM,49.5,47.7,94,29.66,1.8,WNW,5.8,-,N/A,,Overcast,300,2012-12-10 09:14:00
4:34 AM,49.1,47.3,93,29.67,1.8,WNW,8.1,-,N/A,,Overcast,300,2012-12-10 09:34:00
4:54 AM,48.4,46.4,93,29.66,3.0,WNW,10.4,-,N/A,,Overcast,290,2012-12-10 09:54:00
5:14 AM,47.8,45.7,92,29.66,5.0,WNW,5.8,-,N/A,,Overcast,290,2012-12-10 10:14:00
5:34 AM,47.7,45.3,92,29.66,7.0,WNW,10.4,-,N/A,,Overcast,290,2012-12-10 10:34:00
5:54 AM,47.3,44.6,90,29.66,7.0,WNW,5.8,-,N/A,,Overcast,290,2012-12-10 10:54:00
6:14 AM,46.8,43.9,90,29.65,7.0,WNW,9.2,-,N/A,,Overcast,290,2012-12-10 11:14:00
6:34 AM,46.4,43.7,90,29.66,5.0,WNW,8.1,-,N/A,,Overcast,290,2012-12-10 11:34:00
6:54 AM,45.1,42.4,90,29.67,5.0,WNW,10.4,-,N/A,,Overcast,300,2012-12-10 11:54:00
7:14 AM,44.4,41.9,91,29.67,5.0,WNW,15.0,-,N/A,,Overcast,290,2012-12-10 12:14:00
7:34 AM,43.2,40.8,91,29.67,5.0,WNW,13.8,-,N/A,,Overcast,300,2012-12-10 12:34:00
7:54 AM,41.9,39.4,91,29.68,4.0,NW,12.7,-,N/A,,Overcast,310,2012-12-10 12:54:00
8:14 AM,41.0,38.7,91,29.69,4.0,WNW,11.5,18.4,N/A,,Overcast,290,2012-12-10 13:14:00
8:34 AM,40.5,38.3,92,29.70,4.0,WNW,16.1,-,N/A,,Overcast,300,2012-12-10 13:34:00
8:54 AM,40.1,37.4,90,29.70,7.0,WNW,10.4,-,N/A,,Overcast,300,2012-12-10 13:54:00
9:14 AM,38.8,35.8,89,29.71,5.0,NNW,8.1,-,N/A,,Overcast,330,2012-12-10 14:14:00
9:34 AM,38.5,35.6,89,29.70,5.0,NW,8.1,-,N/A,,Overcast,310,2012-12-10 14:34:00
9:54 AM,38.8,34.5,84,29.70,10.0,NW,13.8,18.4,N/A,,Overcast,310,2012-12-10 14:54:00
10:14 AM,38.7,33.8,83,29.71,10.0,NW,9.2,17.3,N/A,,Overcast,320,2012-12-10 15:14:00
10:34 AM,38.7,33.4,81,29.70,10.0,NNW,9.2,-,N/A,,Overcast,340,2012-12-10 15:34:00
10:54 AM,38.8,33.3,80,29.68,10.0,NW,6.9,-,N/A,,Overcast,320,2012-12-10 15:54:00
11:14 AM,39.2,32.5,77,29.69,10.0,NW,8.1,-,N/A,,Overcast,320,2012-12-10 16:14:00
11:34 AM,39.2,32.4,76,29.69,10.0,NW,10.4,-,N/A,,Overcast,320,2012-12-10 16:34:00
11:54 AM,39.2,32.5,77,29.69,10.0,NW,9.2,-,N/A,,Overcast,310,2012-12-10 16:54:00
12:14 PM,39.2,32.0,75,29.69,10.0,NW,10.4,-,N/A,,Overcast,310,2012-12-10 17:14:00
12:34 PM,39.2,32.2,76,29.70,10.0,NNW,12.7,-,N/A,,Overcast,330,2012-12-10 17:34:00
12:53 PM,38.7,32.5,79,29.69,10.0,NNW,8.1,-,N/A,,Overcast,340,2012-12-10 17:53:00
1:14 PM,38.8,32.5,78,29.69,10.0,NW,9.2,-,N/A,,Overcast,320,2012-12-10 18:14:00
1:34 PM,38.5,32.2,78,29.69,10.0,NW,13.8,-,N/A,,Overcast,310,2012-12-10 18:34:00
1:54 PM,37.6,32.0,80,29.68,10.0,NW,13.8,18.4,N/A,,Overcast,310,2012-12-10 18:54:00
2:14 PM,37.4,32.0,81,29.68,10.0,NW,11.5,-,N/A,,Overcast,310,2012-12-10 19:14:00
2:34 PM,36.3,31.1,81,29.69,10.0,NW,13.8,-,N/A,,Overcast,310,2012-12-10 19:34:00
2:54 PM,36.0,30.2,80,29.70,10.0,NW,10.4,-,N/A,,Overcast,320,2012-12-10 19:54:00
3:14 PM,35.2,29.5,80,29.72,10.0,WNW,16.1,-,N/A,,Overcast,300,2012-12-10 20:14:00
3:34 PM,34.7,29.8,82,29.73,10.0,WNW,16.1,-,N/A,,Overcast,290,2012-12-10 20:34:00
3:54 PM,34.0,29.8,85,29.72,10.0,WNW,10.4,16.1,N/A,,Overcast,290,2012-12-10 20:54:00
4:14 PM,33.4,29.5,85,29.73,7.0,WNW,10.4,-,N/A,,Overcast,300,2012-12-10 21:14:00
4:34 PM,32.9,29.3,87,29.74,7.0,WNW,13.8,-,N/A,,Overcast,290,2012-12-10 21:34:00
4:54 PM,32.9,28.9,85,29.76,7.0,WNW,12.7,18.4,N/A,,Overcast,290,2012-12-10 21:54:00
5:14 PM,32.9,28.9,85,29.76,7.0,NW,6.9,-,N/A,,Overcast,310,2012-12-10 22:14:00
5:34 PM,32.9,29.3,87,29.76,7.0,West,6.9,-,N/A,,Overcast,280,2012-12-10 22:34:00
5:54 PM,32.7,29.3,87,29.75,7.0,Calm,Calm,-,N/A,,Overcast,0,2012-12-10 22:54:00
6:14 PM,32.4,29.5,89,29.76,7.0,West,6.9,-,N/A,,Mostly Cloudy,270,2012-12-10 23:14:00
6:34 PM,32.5,29.8,90,29.76,7.0,WNW,9.2,-,N/A,,Mostly Cloudy,290,2012-12-10 23:34:00
6:54 PM,32.5,30.0,90,29.78,7.0,West,11.5,-,N/A,,Overcast,280,2012-12-10 23:54:00
7:14 PM,32.5,29.3,88,29.79,7.0,West,12.7,-,N/A,,Overcast,280,2012-12-11 00:14:00
7:34 PM,32.9,29.8,88,29.79,10.0,WNW,9.2,-,N/A,,Overcast,300,2012-12-11 00:34:00
7:54 PM,32.9,29.7,88,29.80,10.0,WNW,12.7,-,N/A,,Overcast,300,2012-12-11 00:54:00
8:14 PM,32.5,29.3,88,29.80,10.0,NW,12.7,17.3,N/A,,Overcast,310,2012-12-11 01:14:00
8:34 PM,32.5,29.8,90,29.82,7.0,WNW,10.4,-,N/A,,Overcast,300,2012-12-11 01:34:00
8:54 PM,32.5,29.7,89,29.82,7.0,WNW,10.4,-,N/A,,Overcast,300,2012-12-11 01:54:00
9:14 PM,32.5,29.5,88,29.83,10.0,WNW,9.2,-,N/A,,Overcast,300,2012-12-11 02:14:00
9:33 PM,32.5,29.3,88,29.84,10.0,WNW,9.2,-,N/A,,Overcast,290,2012-12-11 02:33:00
9:54 PM,32.4,29.7,90,29.84,10.0,WNW,9.2,-,N/A,,Overcast,290,2012-12-11 02:54:00
10:14 PM,32.4,29.5,89,29.85,10.0,WNW,10.4,-,N/A,,Overcast,290,2012-12-11 03:14:00
10:34 PM,32.4,29.8,90,29.86,10.0,West,11.5,-,N/A,,Overcast,280,2012-12-11 03:34:00
10:54 PM,32.2,30.0,92,29.86,7.0,WNW,9.2,-,N/A,,Overcast,290,2012-12-11 03:54:00
11:13 PM,32.0,30.0,92,29.87,7.0,WNW,12.7,-,N/A,,Overcast,290,2012-12-11 04:13:00
11:34 PM,32.0,30.0,92,29.88,7.0,West,12.7,-,N/A,,Overcast,280,2012-12-11 04:34:00
11:54 PM,32.0,30.0,92,29.88,7.0,West,9.2,-,N/A,,Overcast,270,2012-12-11 04:54:00